AFR28O KLAX-NTAA

Flight info

Callsign AFR28O
Flight time N/A
Altitude 38000
Route SUMMR2 FICKY DCT HILCO DCT 25N126W 20N128W 15N130W/N0482F400 10N132W 0330N13555W 00N138W 05S141W 10S144W 15S147W DCT ASOKI ASOKI4T
Aircraft A359/H-SDE2E3GHIJ3J4J5LM1ORWXY/LB1D1

Departure

Time 2026-04-21 22:19
Airport Los Angeles International Airport (KLAX)

Arrival

Time N/A
Airport Fa'a'ā International Airport (NTAA)
Time Latitude Longitude Altitude Speed Heading
2026-04-21 21:31 33.94176 -118.41105 132 ft 0 kts 82°
2026-04-21 22:09 33.94175 -118.41115 124 ft 3 kts 83°
2026-04-21 22:09 33.94173 -118.41140 132 ft 3 kts 83°
2026-04-21 22:09 33.94171 -118.41163 132 ft 3 kts 83°
2026-04-21 22:09 33.94169 -118.41181 127 ft 3 kts 76°
2026-04-21 22:10 33.94162 -118.41199 132 ft 3 kts 28°
2026-04-21 22:10 33.94145 -118.41204 130 ft 3 kts 353°
2026-04-21 22:10 33.94129 -118.41201 132 ft 1 kts 353°
2026-04-21 22:10 33.94127 -118.41201 132 ft 0 kts 353°
2026-04-21 22:13 33.94157 -118.41205 130 ft 11 kts 353°
2026-04-21 22:13 33.94273 -118.41222 123 ft 23 kts 353°
2026-04-21 22:13 33.94454 -118.41247 129 ft 30 kts 351°
2026-04-21 22:14 33.94665 -118.41282 126 ft 23 kts 353°
2026-04-21 22:14 33.94786 -118.41262 123 ft 16 kts 52°
2026-04-21 22:14 33.94811 -118.41129 132 ft 17 kts 83°
2026-04-21 22:14 33.94826 -118.40983 122 ft 18 kts 83°
2026-04-21 22:15 33.94842 -118.40830 132 ft 19 kts 83°
2026-04-21 22:15 33.94858 -118.40666 132 ft 20 kts 83°
2026-04-21 22:15 33.94876 -118.40493 123 ft 21 kts 83°
2026-04-21 22:15 33.94894 -118.40318 129 ft 22 kts 83°
2026-04-21 22:16 33.94912 -118.40138 126 ft 21 kts 83°
2026-04-21 22:16 33.94922 -118.40093 130 ft 0 kts 63°
2026-04-21 22:17 33.94923 -118.40092 127 ft 2 kts 61°
2026-04-21 22:17 33.94955 -118.40067 124 ft 9 kts
2026-04-21 22:17 33.95020 -118.40108 129 ft 8 kts 297°
2026-04-21 22:17 33.95019 -118.40173 122 ft 10 kts 264°
2026-04-21 22:18 33.94999 -118.40365 132 ft 47 kts 263°
2026-04-21 22:18 33.94934 -118.41002 132 ft 104 kts 263°
2026-04-21 22:18 33.94829 -118.42045 132 ft 151 kts 264°
2026-04-21 22:18 33.94722 -118.43431 468 ft 166 kts 261°
2026-04-21 22:19 33.94574 -118.44750 1325 ft 153 kts 259°
2026-04-21 22:19 33.94432 -118.46056 1726 ft 166 kts 258°
2026-04-21 22:19 33.94311 -118.47478 2041 ft 175 kts 261°
2026-04-21 22:19 33.94224 -118.48809 2327 ft 183 kts 262°
2026-04-21 22:20 33.94149 -118.50275 2546 ft 197 kts 264°
2026-04-21 22:20 33.94113 -118.51995 2773 ft 213 kts 264°
2026-04-21 22:20 33.94055 -118.53835 3079 ft 226 kts 264°
2026-04-21 22:20 33.93954 -118.55776 3421 ft 239 kts 262°
2026-04-21 22:21 33.93769 -118.57817 3818 ft 251 kts 261°
2026-04-21 22:21 33.93568 -118.59932 4504 ft 253 kts 262°
2026-04-21 22:21 33.93406 -118.61895 5401 ft 250 kts 263°
2026-04-21 22:21 33.93242 -118.63987 6141 ft 253 kts 263°
2026-04-21 22:22 33.93080 -118.66108 6888 ft 256 kts 261°
2026-04-21 22:22 33.92898 -118.68258 7682 ft 257 kts 261°
2026-04-21 22:22 33.92727 -118.70397 8598 ft 256 kts 262°
2026-04-21 22:22 33.92568 -118.72531 9461 ft 256 kts 262°
2026-04-21 22:23 33.92406 -118.74683 10231 ft 260 kts 262°
2026-04-21 22:23 33.92235 -118.76897 10754 ft 271 kts 262°
2026-04-21 22:23 33.92055 -118.79204 11298 ft 282 kts 263°
2026-04-21 22:23 33.91868 -118.81600 11645 ft 294 kts 263°
2026-04-21 22:24 33.91767 -118.84112 11918 ft 306 kts 268°
2026-04-21 22:24 33.91819 -118.86716 12145 ft 317 kts 269°
2026-04-21 22:24 33.91902 -118.89403 12405 ft 325 kts 269°
2026-04-21 22:24 33.91987 -118.92135 12806 ft 328 kts 269°
2026-04-21 22:25 33.92072 -118.94884 13315 ft 328 kts 269°
2026-04-21 22:25 33.92155 -118.97634 13760 ft 330 kts 269°
2026-04-21 22:25 33.92165 -119.00398 14164 ft 330 kts 264°
2026-04-21 22:25 33.91716 -119.03090 14591 ft 329 kts 251°
2026-04-21 22:26 33.90866 -119.05650 15005 ft 330 kts 248°
2026-04-21 22:26 33.89941 -119.08176 15436 ft 330 kts 247°
2026-04-21 22:26 33.89008 -119.10708 15842 ft 332 kts 247°
2026-04-21 22:26 33.88073 -119.13256 16259 ft 332 kts 248°
2026-04-21 22:27 33.87276 -119.15437 16613 ft 333 kts 248°
2026-04-21 22:27 33.86336 -119.18016 17044 ft 334 kts 248°
2026-04-21 22:27 33.85402 -119.20579 17461 ft 335 kts 248°
2026-04-21 22:27 33.84464 -119.23149 17863 ft 336 kts 248°
2026-04-21 22:28 33.83519 -119.25736 18204 ft 338 kts 248°
2026-04-21 22:28 33.82574 -119.28324 18605 ft 338 kts 248°
2026-04-21 22:28 33.81621 -119.30911 18940 ft 340 kts 247°
2026-04-21 22:28 33.80495 -119.33421 19248 ft 343 kts 240°
2026-04-21 22:29 33.79030 -119.35703 19571 ft 348 kts 232°
2026-04-21 22:29 33.77235 -119.37687 19903 ft 353 kts 225°
2026-04-21 22:29 33.75312 -119.39508 20231 ft 355 kts 224°
2026-04-21 22:29 33.73353 -119.41329 20510 ft 357 kts 224°
2026-04-21 22:30 33.71384 -119.43165 20709 ft 360 kts 224°
2026-04-21 22:30 33.69400 -119.45015 21024 ft 361 kts 224°
2026-04-21 22:30 33.67417 -119.46867 21334 ft 362 kts 224°
2026-04-21 22:30 33.65425 -119.48730 21648 ft 363 kts 224°
2026-04-21 22:31 33.63432 -119.50594 21933 ft 364 kts 224°
2026-04-21 22:31 33.61425 -119.52470 22225 ft 366 kts 224°
2026-04-21 22:31 33.59419 -119.54345 22516 ft 367 kts 224°
2026-04-21 22:31 33.57396 -119.56236 22752 ft 369 kts 224°
2026-04-21 22:32 33.55355 -119.58112 22933 ft 372 kts 224°
2026-04-21 22:32 33.53309 -119.60013 23307 ft 372 kts 224°
2026-04-21 22:32 33.51270 -119.61928 23589 ft 373 kts 224°
2026-04-21 22:32 33.49217 -119.63852 23818 ft 374 kts 224°
2026-04-21 22:33 33.47859 -119.65122 23978 ft 375 kts 224°
2026-04-21 22:33 33.45798 -119.67045 24203 ft 376 kts 224°
2026-04-21 22:33 33.43732 -119.68970 24430 ft 377 kts 224°
2026-04-21 22:33 33.41656 -119.70903 24584 ft 379 kts 224°
2026-04-21 22:34 33.39570 -119.72844 24787 ft 380 kts 224°
2026-04-21 22:34 33.37480 -119.74785 25023 ft 381 kts 224°
2026-04-21 22:34 33.35386 -119.76729 25231 ft 381 kts 224°
2026-04-21 22:34 33.33288 -119.78676 25465 ft 382 kts 224°
2026-04-21 22:35 33.31181 -119.80629 25699 ft 383 kts 224°
2026-04-21 22:35 33.29075 -119.82580 25926 ft 384 kts 224°
2026-04-21 22:35 33.26960 -119.84540 26111 ft 386 kts 224°